Regional Weather Roundup
Issued by NWS

Home | Current Version | Previous Version | Graphics & Text | Print | Product List | Glossary On
Versions: 1 2 3 4 5 6 7 8 9 10 11 12 13 14 15 16 17 18 19 20 21 22 23 24 25 26 27 28 29 30 31 32 33 34 35 36 37 38 39 40 41 42 43 44 45 46 47 48 49 50
000
ASUS43 KIND 242100
RWRIN

WEATHER ROUNDUP FOR INDIANA
NATIONAL WEATHER SERVICE INDIANAPOLIS IN
500 PM EDT SUN SEP 24 2017

NOTE: "FAIR" INDICATES FEW OR NO CLOUDS BELOW 12,000 FEET WITH NO
SIGNIFICANT WEATHER AND/OR OBSTRUCTIONS TO VISIBILITY.

* - STATION DOES NOT REPORT WEATHER SUCH AS PRECIPITATION OR FOG.

+ - STATION NOT QUALITY CONTROLLED BY THE NATIONAL WEATHER SERVICE.
    USE DATA WITH CAUTION...ESPECIALLY DEWPOINT AND RELATIVE
    HUMIDITY OBSERVATIONS.

INZ001>003-010>013-019-020-242200-
NORTHWEST INDIANA

CITY           SKY/WX    TMP DP  RH WIND       PRES   REMARKS
GARY /AIRPORT/ MOSUNNY   84  61  45 NE10      30.02F

$$

LMZ046-743>745-242200-
SOUTHERN LAKE MICHIGAN

STATION/POSITION TIME  TEMP    WIND        PRES    WAVE
                       AIR SEA DIR/SP/G            HT
                 (UTC) (F)     (DEG/KT/KT) (MB)    (FT)
BURNS HARBOR     2040   76      20/ 11/ 13 1016.9F
MICHIGAN CITY    2030   79     350/ 10/ 11   N/A
5NW MICH CITY    2050   78 74   40/  8/ 10   N/A     1

$$

INZ004-005-014>016-021>024-242200-
NORTH CENTRAL INDIANA

CITY           SKY/WX    TMP DP  RH WIND       PRES   REMARKS
GOSHEN         SUNNY     90  55  30 SE9       30.05F
SOUTH BEND     SUNNY     89  55  31 S13       30.05F

$$

INZ006>009-017-018-025>027-242200-
NORTHEAST INDIANA

CITY           SKY/WX    TMP DP  RH WIND       PRES   REMARKS
FORT WAYNE     MOSUNNY   88  55  32 SE12      30.06F
KENDALLVILLE + SUNNY     87  59  37 SE7       30.08F

$$

INZ028-029-035-036-043>045-051>053-242200-
WEST CENTRAL INDIANA

CITY           SKY/WX    TMP DP  RH WIND       PRES   REMARKS
LAFAYETTE      SUNNY     87  56  34 S5        30.00F
TERRE HAUTE    MOSUNNY   91  55  29 SE9       30.00F

$$

INZ030>032-037>040-046>048-054>057-064-065-242200-
CENTRAL INDIANA

CITY           SKY/WX    TMP DP  RH WIND       PRES   REMARKS
COLUMBUS       MOSUNNY   90  45  20 S10       30.03F
INDIANAPOLIS   MOSUNNY   90  54  29 E10       30.03F
-EAGLE CREEK   SUNNY     90  53  28 E5        30.02F
KOKOMO +       SUNNY     88  58  36 S7        30.05F
MT COMFORT *+  SUNNY     90  54  29 E10       30.05S
SHELBYVILLE    MOSUNNY   92  52  25 SE8       30.03F

$$

INZ033-034-041-042-049-050-058-059-242200-
EAST CENTRAL INDIANA

CITY           SKY/WX    TMP DP  RH WIND       PRES   REMARKS
MUNCIE         SUNNY     90  49  24 SE13      30.05F
RICHMOND +     SUNNY     86  52  30 SE6       30.08F

$$

INZ060-061-067>069-081>083-085>088-242200-
SOUTHWEST INDIANA

CITY           SKY/WX    TMP DP  RH WIND       PRES   REMARKS
EVANSVILLE     SUNNY     89  63  41 E7        29.98F
HUNTINGBURG +  SUNNY     88  67  49 SE8       30.00F

$$

INZ062-063-066-070>080-084-089>092-242200-
SOUTH CENTRAL AND SOUTHEAST INDIANA

CITY           SKY/WX    TMP DP  RH WIND       PRES   REMARKS
BLOOMINGTON    SUNNY     90  54  29 SE12G17   30.02F
MADISON *+     SUNNY     88  50  27 E6        30.06F
SEYMOUR +      SUNNY     91  57  31 E8        30.03F

$$





USA.gov is the U.S. government's official web portal to all federal, state and local government web resources and services.